This is the latest recevied weather packets stored in our database for station/object EA7OC-10. If no packets are shown the sender has not sent any weather packets the latest 10 day(s).
| Time | Temp. | Humidity | Pressure | Rain* | Wind** | Luminosity | Snow |
|---|---|---|---|---|---|---|---|
| 1787707371 | 22.22° C | 32% | 1013.7 hPa | - | - | - | - |
| 1787706471 | 22.78° C | 32% | 1013.9 hPa | - | - | - | - |
| 1787705571 | 22.78° C | 32% | 1014 hPa | - | - | - | - |
| 1787704671 | 23.33° C | 32% | 1014.1 hPa | - | - | - | - |
| 1787703770 | 23.33° C | 32% | 1014.2 hPa | - | - | - | - |
| 1787702870 | 23.89° C | 32% | 1014.4 hPa | - | - | - | - |
| 1787701970 | 24.44° C | 32% | 1014.5 hPa | - | - | - | - |
| 1787701070 | 25° C | 32% | 1014.6 hPa | - | - | - | - |
| 1787700170 | 25° C | 32% | 1014.3 hPa | - | - | - | - |
| 1787699266 | 25.56° C | 32% | 1014.3 hPa | - | - | - | - |
| 1787698366 | 25.56° C | 32% | 1014.5 hPa | - | - | - | - |
| 1787697466 | 25.56° C | 31% | 1014.6 hPa | - | - | - | - |
| 1787696565 | 26.11° C | 31% | 1014.4 hPa | - | - | - | - |
| 1787695665 | 26.11° C | 31% | 1014.4 hPa | - | - | - | - |
| 1787694765 | 25.56° C | 31% | 1014.7 hPa | - | - | - | - |
| 1787693861 | 25.56° C | 30% | 1014.6 hPa | - | - | - | - |
| 1787692961 | 25.56° C | 30% | 1014.6 hPa | - | - | - | - |
| 1787692061 | 26.11° C | 30% | 1014.6 hPa | - | - | - | - |
| 1787691161 | 26.11° C | 30% | 1014.3 hPa | - | - | - | - |
| 1787690261 | 26.11° C | 30% | 1014.1 hPa | - | - | - | - |
| 1787689360 | 26.67° C | 30% | 1013.9 hPa | - | - | - | - |
| 1787688456 | 27.22° C | 30% | 1013.9 hPa | - | - | - | - |
| 1787687556 | 27.78° C | 30% | 1013.7 hPa | - | - | - | - |
| 1787686655 | 28.33° C | 29% | 1013.4 hPa | - | - | - | - |
| 1787685755 | 28.33° C | 29% | 1013.2 hPa | - | - | - | - |
* Rain since midnight (hover to see other rain measurements)
** Current wind speed in m/s (hover to see current wind gust speed)